[[{"header":{"parameterUnit":"m.s-1","parameterCategory":1,"la1":30.2991,"la2":30.254,"lo1":-89.0895,"lo2":-89.0444,"dy":0.0017,"dx":0.0017,"nx":28,"ny":28,"refTime":"2024-11-30T09:00:00:Z","depth":0,"parameterNumber":2,"parameterNumberName":"U-component_of_WINDS"},"data":[0,0,0,0,0,0,0,0,0,0,0,0,0,0,0,0,0,0,0,0,0,0,0,0,0,0,0,0,0,0,0,0,0,0,0,0,0,0,0,0,0,0,0,0,0,0,0,0,0,0,0,0,0,0,0,0,0,0,-4.7263,-4.7264,0,-4.7336,-4.7337,-4.7337,-4.7203,-4.7198,-4.7194,-4.7189,-4.7266,-4.7273,-4.7279,0,0,0,0,0,0,0,0,0,0,0,0,0,-4.701,-4.7015,-4.7263,-4.7264,-4.7265,-4.7336,-4.7337,-4.7338,-4.7203,-4.7198,-4.7192,-4.7187,-4.7264,-4.7272,-4.7279,0,0,0,0,0,0,0,0,0,0,0,0,0,-4.7105,-4.7017,-4.7263,-4.7206,-4.7202,-4.7335,-4.7337,-4.7338,-4.7205,-4.7198,-4.7191,-4.7185,-4.7262,-4.7271,-4.728,-4.7473,0,0,-4.7309,-4.7313,0,0,0,0,0,0,0,0,-4.71,-4.7114,-4.7214,-4.721,-4.7206,-4.7253,-4.7275,-4.7383,-4.7206,-4.7204,-4.7189,-4.7181,-4.7268,-4.7276,-4.7305,-4.7476,-4.748,-4.731,-4.7315,-4.7319,-4.7322,0,0,0,0,0,0,0,-4.7093,-4.7111,-4.7292,-4.7215,-4.7211,-4.7178,-4.7184,-4.7295,-4.7273,-4.7203,-4.7194,-4.7204,-4.7264,-4.7296,-4.7305,-4.7481,-4.7309,-4.7318,-4.7324,-4.7327,-4.7816,-4.7823,0,0,0,0,0,0,-4.7094,-4.7106,-4.7289,-4.7294,-4.7135,-4.7188,-4.7195,-4.7245,-4.7271,-4.7268,-4.721,-4.7198,-4.7283,-4.7295,-4.7308,-4.7536,-4.7319,-4.7328,-4.7333,-4.7808,-4.7817,-4.7825,0,0,0,0,0,0,-4.7089,-4.7111,-4.7286,-4.7197,-4.7217,-4.7199,-4.7257,-4.725,-4.7281,-4.7276,-4.7271,-4.7246,-4.7278,-4.7294,-4.7433,-4.7537,-4.7332,-4.7341,-4.78,-4.7811,-4.7821,-4.7995,0,0,0,0,0,0,-4.7082,-4.711,-4.7183,-4.72,-4.7222,-4.7411,-4.7263,-4.7256,-4.7298,-4.7282,-4.7309,-4.7307,-4.7274,-4.742,-4.7442,-4.7546,-4.7348,-4.779,-4.7805,-4.7818,-4.798,-4.801,-4.8036,0,0,0,0,0,-4.7073,-4.7229,-4.7187,-4.721,-4.7313,-4.7417,-4.743,-4.7388,-4.7306,-4.738,-4.7376,-4.7306,-4.7521,-4.7435,-4.7459,-4.7568,-4.7784,-4.7801,-4.7817,-4.7967,-4.8004,-4.8036,0,0,0,0,0,0,-4.7226,-4.723,-4.7184,-4.735,-4.7384,-4.7394,-4.7485,-4.7429,-4.7488,-4.7471,-4.7418,-4.7425,-4.7575,-4.7584,-4.7488,-4.7756,-4.7639,-4.7661,-4.7745,-4.778,-4.7808,-4.7804,-4.7356,0,0,0,0,0,-4.7278,-4.7362,-4.7361,-4.7508,-4.7527,-4.7504,-4.7547,-4.7512,-4.7546,-4.756,-4.7566,-4.7602,-4.7678,-4.7729,-4.7798,-4.7979,-4.7984,-4.8066,-4.8094,-4.8117,-4.8138,-4.8236,-4.8273,-4.788,-4.7879,-4.7879,0,0,-4.7389,-4.7401,-4.7457,-4.7539,-4.7561,-4.765,-4.7517,-4.7616,-4.7681,-4.7575,-4.7707,-4.7713,-4.7749,-4.791,-4.7981,-4.7923,-4.8248,-4.8139,-4.8157,-4.8165,-4.8257,-4.8295,-4.8328,-4.7891,-4.7889,-4.7887,0,0,-4.7635,-4.7652,-4.7777,-4.7802,-4.7837,-4.782,-4.785,-4.7869,-4.7868,-4.7999,-4.7922,-4.7999,-4.813,-4.8159,-4.8192,-4.8449,-4.8388,-4.8473,-4.8623,-4.8719,-4.875,-4.8777,-4.8871,-4.8905,-4.8493,-4.8493,-4.8494,0,-4.7768,-4.7898,-4.7848,-4.7953,-4.7992,-4.7898,-4.8025,-4.8051,-4.8108,-4.8137,-4.807,-4.8233,-4.8251,-4.8418,-4.8481,-4.851,-4.8543,-4.8471,-4.8749,-4.8776,-4.8801,-4.889,-4.8925,-4.8504,-4.8502,-4.8501,-4.85,0,-4.806,-4.8151,-4.8248,-4.8304,-4.8353,-4.8469,-4.8437,-4.8493,-4.8454,-4.8444,-4.8579,-4.8597,-4.8669,-4.8705,-4.8668,-4.8868,-4.8831,-4.8758,-4.8639,-4.885,-4.8933,-4.8966,-4.8519,-4.8515,-4.8512,-4.8509,0,0,-4.8407,-4.8434,-4.847,-4.8495,-4.8527,-4.8597,-4.8708,-4.8777,-4.8827,-4.8869,-4.8962,-4.9074,-4.9007,-4.9044,-4.9008,-4.9092,-4.9298,-4.9008,-4.9008,-4.9064,-4.9522,-4.9579,-4.9619,-4.9256,-4.9262,-4.9267,-4.9519,0,-4.8654,-4.8845,-4.8803,-4.8991,-4.9076,-4.8988,-4.9085,-4.9115,-4.9109,-4.918,-4.9173,-4.9255,-4.9158,-4.918,-4.9259,-4.9256,-4.9389,-4.9237,-4.9344,-4.9348,-4.934,-4.9662,-4.9723,-4.996,-4.9551,-4.9557,-4.9561,0,-4.8967,-4.9021,-4.9218,-4.9236,-4.927,-4.9358,-4.9418,-4.9487,-4.952,-4.9509,-4.9551,-4.9499,-4.961,-4.9489,-4.9642,-4.9539,-4.958,-4.9585,-4.9593,-4.9604,-4.9469,-4.9684,-5.0035,-5.0072,-4.9611,-4.9607,-4.9603,0,-4.9204,-4.9324,-4.9458,-4.9482,-4.9506,-4.957,-4.9583,-4.9609,-4.9654,-4.9706,-4.9735,-4.9801,-4.9837,-4.989,-4.9857,-4.9772,-5.0017,-4.9892,-5.0013,-5.0015,-5.0071,-5.0069,-5.0437,-5.0094,-5.0093,-5.0093,-5.0092,0,-4.9485,-4.961,-4.9565,-4.9647,-4.9784,-4.9735,-4.9872,-4.9875,-4.9899,-4.9981,-4.9908,-4.9987,-4.9939,-5.0014,-4.9989,-5.0121,-5.0138,-5.0134,-5.0126,-5.0142,-5.0143,-5.017,-5.0154,-5.0102,-5.01,-5.0098,-5.0096,0,-4.9773,-4.9748,-4.9888,-4.9899,-4.9905,-5.0006,-5.0016,-5.0093,-5.008,-5.0186,-5.0208,-5.0189,-5.0274,-5.0246,-5.0337,-5.0321,-5.0489,-5.0459,-5.0479,-5.0472,-5.0596,-5.0585,-5.0996,-5.1048,-5.0669,-5.0673,-5.0676,0,-4.9956,-5.005,-5.0071,-5.012,-5.0139,-5.0219,-5.0264,-5.0219,-5.0269,-5.0313,-5.0386,-5.0464,-5.0525,-5.0664,-5.066,-5.0729,-5.0702,-5.0841,-5.0712,-5.0726,-5.0707,-5.0703,-5.0713,-5.0868,-5.0872,-5.0876,-5.0879,0,-5.0284,-5.0266,-5.0334,-5.0398,-5.0453,-5.0501,-5.0542,-5.0587,-5.0544,-5.0605,-5.069,-5.0737,-5.083,-5.0909,-5.0972,-5.0986,-5.0927,-5.0919,-5.0951,-5.0969,-5.0978,-5.0977,-5.0552,-5.091,-5.0907,-5.0905,-5.0903,-5.0902,-5.0526,-5.0606,-5.0634,-5.0711,-5.0737,-5.0778,-5.0851,-5.0848,-5.0918,-5.099,-5.0959,-5.1058,-5.1088,-5.1167,-5.1189,-5.1267,-5.1213,-5.126,-5.1272,-5.1285,-5.1301,-5.0963,-5.1278,-5.1277,-5.1276,-5.1275,-5.1274,0,-5.0852,-5.0865,-5.0937,-5.0997,-5.1059,-5.0995,-5.1038,-5.1094,-5.1182,-5.1215,-5.1275,-5.1374,-5.1451,-5.1452,-5.1523,-5.1585,-5.156,-5.1606,-5.1602,-5.1607,-5.1344,-5.131,-5.1625,-5.1625,-5.1625,-5.1625,-5.1625,-5.1625,-5.103,-5.1162,-5.1148,-5.1292,-5.1304,-5.14,-5.143,-5.1468,-5.1494,-5.1607,-5.167,-5.1669,-5.169,-5.1762,-5.183,-5.1828,-5.1859,-5.1916,-5.1905,-5.166,-5.1625,-5.1592,-5.156,-5.1922,-5.1923,-5.2161,-5.2163,-5.2165]},{"header":{"parameterUnit":"m.s-1","parameterCategory":1,"la1":30.2991,"la2":30.254,"lo1":-89.0895,"lo2":-89.0444,"dy":0.0017,"dx":0.0017,"nx":28,"ny":28,"refTime":"2024-11-30T09:00:00:Z","depth":0,"parameterNumber":3,"parameterNumberName":"V-component_of_WINDS"},"data":[0,0,0,0,0,0,0,0,0,0,0,0,0,0,0,0,0,0,0,0,0,0,0,0,0,0,0,0,0,0,0,0,0,0,0,0,0,0,0,0,0,0,0,0,0,0,0,0,0,0,0,0,0,0,0,0,0,0,-3.924,-3.9241,0,-3.9262,-3.9262,-3.9262,-3.9212,-3.9211,-3.9209,-3.9208,-3.9228,-3.923,-3.9232,0,0,0,0,0,0,0,0,0,0,0,0,0,-3.9154,-3.9156,-3.924,-3.9241,-3.9241,-3.9262,-3.9262,-3.9262,-3.9213,-3.9211,-3.9209,-3.9207,-3.9227,-3.923,-3.9232,0,0,0,0,0,0,0,0,0,0,0,0,0,-3.9185,-3.9156,-3.924,-3.9219,-3.9217,-3.9262,-3.9262,-3.9262,-3.9213,-3.9211,-3.9208,-3.9206,-3.9227,-3.923,-3.9233,-3.9299,0,0,-3.9242,-3.9243,0,0,0,0,0,0,0,0,-3.9183,-3.9188,-3.9222,-3.922,-3.9218,-3.9232,-3.9239,-3.9275,-3.9214,-3.9214,-3.9208,-3.9205,-3.9231,-3.9234,-3.9243,-3.93,-3.9301,-3.9242,-3.9244,-3.9245,-3.9246,0,0,0,0,0,0,0,-3.9181,-3.9187,-3.9249,-3.9222,-3.922,-3.9207,-3.9209,-3.9245,-3.9236,-3.9214,-3.9211,-3.9214,-3.923,-3.924,-3.9243,-3.9301,-3.9242,-3.9245,-3.9247,-3.9248,-3.9411,-3.9414,0,0,0,0,0,0,-3.9182,-3.9186,-3.9248,-3.9249,-3.9195,-3.9211,-3.9213,-3.923,-3.9235,-3.9234,-3.9216,-3.9212,-3.9236,-3.9239,-3.9244,-3.932,-3.9245,-3.9248,-3.925,-3.9409,-3.9412,-3.9415,0,0,0,0,0,0,-3.9181,-3.9188,-3.9247,-3.9217,-3.9223,-3.9215,-3.9235,-3.9232,-3.9242,-3.9237,-3.9234,-3.9228,-3.9234,-3.9239,-3.9285,-3.932,-3.9249,-3.9252,-3.9406,-3.941,-3.9413,-3.9475,0,0,0,0,0,0,-3.9178,-3.9188,-3.9214,-3.9218,-3.9225,-3.929,-3.9237,-3.9234,-3.9247,-3.9242,-3.9248,-3.9246,-3.9233,-3.9281,-3.9288,-3.9323,-3.9255,-3.9403,-3.9408,-3.9412,-3.947,-3.9481,-3.949,0,0,0,0,0,-3.9175,-3.9231,-3.9215,-3.9223,-3.9257,-3.9292,-3.9296,-3.928,-3.9251,-3.9276,-3.9272,-3.9246,-3.9315,-3.9286,-3.9294,-3.933,-3.94,-3.9406,-3.9412,-3.9466,-3.9479,-3.949,0,0,0,0,0,0,-3.9231,-3.9231,-3.9214,-3.9272,-3.9282,-3.9283,-3.9315,-3.9294,-3.9313,-3.9307,-3.9285,-3.9287,-3.9336,-3.9338,-3.9305,-3.9394,-3.9353,-3.936,-3.9391,-3.9403,-3.9413,-3.9411,-3.9257,0,0,0,0,0,-3.925,-3.9279,-3.9277,-3.9328,-3.9334,-3.9324,-3.9338,-3.9325,-3.9334,-3.9338,-3.9338,-3.9348,-3.9371,-3.9387,-3.9409,-3.947,-3.947,-3.9499,-3.9509,-3.9517,-3.9523,-3.9554,-3.9567,-3.9433,-3.9433,-3.9433,0,0,-3.929,-3.9293,-3.9313,-3.9339,-3.9346,-3.9375,-3.9328,-3.9361,-3.9382,-3.9343,-3.9386,-3.9386,-3.9396,-3.9449,-3.9472,-3.9452,-3.956,-3.9524,-3.9531,-3.9533,-3.9561,-3.9574,-3.9585,-3.9437,-3.9437,-3.9436,0,0,-3.9377,-3.9383,-3.9426,-3.9433,-3.9443,-3.9435,-3.9446,-3.9449,-3.9448,-3.9491,-3.9462,-3.9486,-3.9528,-3.9535,-3.9545,-3.9633,-3.9609,-3.9641,-3.9692,-3.9722,-3.9733,-3.9742,-3.9772,-3.9784,-3.9647,-3.9647,-3.9648,0,-3.9425,-3.9468,-3.945,-3.9485,-3.9497,-3.9463,-3.9505,-3.9513,-3.953,-3.9538,-3.9515,-3.9566,-3.957,-3.9623,-3.9645,-3.9654,-3.9664,-3.964,-3.9733,-3.9742,-3.975,-3.9779,-3.979,-3.9651,-3.9651,-3.965,-3.965,0,-3.9526,-3.9557,-3.959,-3.9606,-3.9622,-3.9661,-3.9647,-3.9665,-3.965,-3.9645,-3.9688,-3.9691,-3.9713,-3.9724,-3.971,-3.9776,-3.9763,-3.9737,-3.9695,-3.9767,-3.9793,-3.9804,-3.9656,-3.9655,-3.9654,-3.9653,0,0,-3.9649,-3.9655,-3.9667,-3.9674,-3.9682,-3.9704,-3.9741,-3.9761,-3.9777,-3.9789,-3.9818,-3.9854,-3.9829,-3.984,-3.9826,-3.9852,-3.992,-3.9823,-3.9822,-3.984,-3.9992,-4.001,-4.0024,-3.9905,-3.9907,-3.9908,-3.999,0,-3.9734,-3.9797,-3.9781,-3.9843,-3.987,-3.9838,-3.9869,-3.9877,-3.9872,-3.9894,-3.9889,-3.9914,-3.988,-3.9886,-3.9911,-3.9907,-3.995,-3.9901,-3.9931,-3.9932,-3.9929,-4.0038,-4.0058,-4.0135,-4.0001,-4.0003,-4.0004,0,-3.9842,-3.9859,-3.9923,-3.9925,-3.9936,-3.9965,-3.9981,-4.0003,-4.0011,-4.0005,-4.0017,-3.9997,-4.0031,-3.999,-4.0037,-4.0003,-4.0014,-4.0014,-4.0016,-4.0018,-3.9972,-4.0041,-4.016,-4.0171,-4.002,-4.0019,-4.0018,0,-3.9924,-3.9962,-4.0005,-4.0012,-4.0016,-4.0037,-4.0039,-4.0044,-4.0057,-4.0072,-4.008,-4.0098,-4.0108,-4.0123,-4.0108,-4.0079,-4.0157,-4.0114,-4.0152,-4.0153,-4.017,-4.0169,-4.0291,-4.0179,-4.0178,-4.0178,-4.0178,0,-4.0021,-4.0061,-4.0042,-4.0069,-4.0113,-4.0093,-4.0137,-4.0136,-4.014,-4.0165,-4.0138,-4.0162,-4.0142,-4.0163,-4.0152,-4.0192,-4.0197,-4.0193,-4.0189,-4.0195,-4.0195,-4.0201,-4.0195,-4.0181,-4.018,-4.018,-4.0179,0,-4.012,-4.0109,-4.0153,-4.0153,-4.0154,-4.0186,-4.0185,-4.0209,-4.0203,-4.0234,-4.0241,-4.023,-4.0254,-4.0241,-4.0266,-4.0258,-4.0309,-4.0299,-4.0307,-4.0304,-4.0342,-4.0338,-4.0472,-4.0488,-4.0366,-4.0368,-4.0369,0,-4.0182,-4.0212,-4.0215,-4.0229,-4.0233,-4.0258,-4.0271,-4.0252,-4.0267,-4.0277,-4.0299,-4.0321,-4.0337,-4.0377,-4.0371,-4.039,-4.0379,-4.0424,-4.0381,-4.0386,-4.0378,-4.0376,-4.0379,-4.0433,-4.0434,-4.0435,-4.0436,0,-4.0292,-4.0285,-4.0304,-4.0322,-4.0338,-4.0351,-4.0362,-4.0375,-4.0357,-4.0374,-4.0398,-4.0411,-4.0436,-4.0458,-4.0473,-4.0475,-4.0452,-4.045,-4.0459,-4.0465,-4.0468,-4.0466,-4.0329,-4.0447,-4.0446,-4.0445,-4.0444,-4.0444,-4.0374,-4.0398,-4.0404,-4.0426,-4.0432,-4.0442,-4.0464,-4.046,-4.048,-4.0499,-4.0487,-4.0515,-4.052,-4.0539,-4.0543,-4.0564,-4.0546,-4.056,-4.0564,-4.0567,-4.0572,-4.0465,-4.0567,-4.0567,-4.0567,-4.0567,-4.0566,0,-4.0481,-4.0483,-4.0504,-4.0519,-4.0537,-4.0514,-4.0524,-4.054,-4.0565,-4.0572,-4.0589,-4.0616,-4.0636,-4.0632,-4.065,-4.0668,-4.0658,-4.0673,-4.0671,-4.0671,-4.0588,-4.0577,-4.0681,-4.0681,-4.068,-4.068,-4.068,-4.068,-4.054,-4.058,-4.0573,-4.0615,-4.0616,-4.0644,-4.0651,-4.066,-4.0665,-4.0697,-4.0714,-4.0711,-4.0713,-4.0731,-4.0748,-4.0746,-4.0753,-4.0772,-4.0767,-4.0689,-4.0677,-4.0667,-4.0656,-4.0774,-4.0775,-4.0848,-4.0849,-4.0849]}]]